Weather History for MHTG - January, 2013

Change the Weather History Date:

Tuesday, January 22, 2013

  Actual Average Record
Temperature  
Mean Temperature 70 °F -  
Max Temperature 79 °F 79 °F 86 °F (1998)
Min Temperature 60 °F 57 °F 46 °F (2009)
Cooling Degree Days 4    
Growing Degree Days 20 (Base 50)    
Moisture  
Dew Point 62 °F    
Average Humidity 80    
Maximum Humidity 100    
Minimum Humidity 57    
Precipitation  
Precipitation 0.00 in 0.01 in - ()
Sea Level Pressure  
Sea Level Pressure 30.11 in    
Wind  
Wind Speed 9 mph ()    
Max Wind Speed 15 mph    
Max Gust Speed -    
Visibility 5.9 miles    
Events Snow    
Averages and records for this station are not official NWS values.
T = Trace of Precipitation, MM = Missing Value Source: Averaged Metar Reports

Daily Weather History Graph

Daily Weather History Graph

Search for Another Location

Airport or City:

Trip Planner

Search our weather history database for the weather conditions in past years. The results will help you decide how hot, cold, wet, or windy it might be!

Date:

Astronomy

Jan. 22, 2013 Rise Set
Actual Time 6:17 AM CST 5:43 PM CST
Civil Twilight 5:54 AM CST 6:06 PM CST
Nautical Twilight 5:28 AM CST 6:32 PM CST
Astronomical Twilight 5:02 AM CST 6:58 PM CST
Moon 2:13 PM CST (1/22) 2:32 AM CST (1/22)
Length of Visible Light 12h 11m
Length of Day
11h 26m
Waxing Gibbous, 83% of the Moon is Illuminated
Jan 22
Waxing Gibbous
Jan 26
Full
Feb 3
Last Quarter
Feb 10
New
Feb 17
First Quarter

Hourly Weather History & Observations

Time (CST) Temp. Dew Point Humidity Pressure Visibility Wind Dir Wind Speed Gust Speed Precip Events Conditions
12:00 AM 63 °F 61 °F 89% 30.02 in 6 mi North 9.2 mph - -   Partly Cloudy
12:00 AM 62.6 °F 60.8 °F 94% 30.15 in 6.2 mi North 9.2 mph - N/A   Mostly Cloudy
1:00 AM 62.6 °F 60.8 °F 94% 30.12 in 6.2 mi North 10.4 mph - N/A   Mostly Cloudy
2:00 AM 62.6 °F 60.8 °F 94% 30.12 in 3.7 mi NNE 9.2 mph - N/A   Mostly Cloudy
3:00 AM 60.8 °F 60.8 °F 100% 30.09 in 3.7 mi NNE 5.8 mph - N/A Snow Rain
4:00 AM 60.8 °F 60.8 °F 100% 30.09 in 1.2 mi North - - N/A   Overcast
5:00 AM 60.8 °F 60.8 °F 100% 30.12 in 6.2 mi North 5.8 mph - N/A   Mostly Cloudy
6:00 AM - - %  in 4 mi Calm Calm - -  
6:00 AM - - N/A% - - North - - N/A   Unknown
7:00 AM 60.8 °F 60.8 °F 100% 30.15 in 5.0 mi NNE 6.9 mph - N/A   Mostly Cloudy
8:00 AM 64.4 °F 62.6 °F 94% 30.18 in 5.0 mi NNE 8.1 mph - N/A   Mostly Cloudy
9:00 AM 66 °F 62 °F 83% 30.06 in 6 mi NNE 8.1 mph - -   Haze
9:00 AM 66.2 °F 62.6 °F 88% 30.21 in 6.2 mi NNE 8.1 mph - N/A   Mostly Cloudy
10:00 AM 68.0 °F 62.6 °F 83% 30.21 in 6.2 mi North 10.4 mph - N/A   Mostly Cloudy
11:00 AM 73.4 °F 62.6 °F 69% 30.18 in 6.2 mi North 15.0 mph - N/A   Mostly Cloudy
12:00 PM 74 °F 62 °F 58% 29.98 in 7 mi North 13.8 mph - -   Haze
12:00 PM 75.2 °F 62.6 °F 65% 30.18 in 6.2 mi North 13.8 mph - N/A   Mostly Cloudy
1:00 PM 73.4 °F 62.6 °F 69% 30.12 in 6.2 mi North 13.8 mph - N/A   Mostly Cloudy
2:00 PM 75.2 °F 62.6 °F 65% 30.09 in 6.2 mi North 15.0 mph - N/A   Mostly Cloudy
3:00 PM 74 °F 62 °F 57% 29.90 in 9 mi North 13.8 mph - -   Haze
3:00 PM 75.2 °F 62.6 °F 65% 30.09 in 6.2 mi North 13.8 mph - N/A   Mostly Cloudy
4:00 PM 75.2 °F 60.8 °F 61% 30.09 in 6.2 mi North 11.5 mph - N/A   Scattered Clouds
5:00 PM 75.2 °F 60.8 °F 61% 30.09 in 6.2 mi North 13.8 mph - N/A   Scattered Clouds
6:00 PM 71 °F 61 °F 63% 29.94 in 9 mi North 12.7 mph - -   Haze
6:00 PM 71.6 °F 60.8 °F 69% 30.12 in 6.2 mi North 12.7 mph - N/A   Scattered Clouds
7:00 PM 69.8 °F 62.6 °F 78% 30.12 in 6.2 mi NE 8.1 mph - N/A   Scattered Clouds
8:00 PM 69.8 °F 62.6 °F 78% 30.15 in 6.2 mi North 9.2 mph - N/A   Mostly Cloudy
9:00 PM 68.0 °F 62.6 °F 83% 30.18 in 6.2 mi North 13.8 mph - N/A   Mostly Cloudy
10:00 PM 68.0 °F 64.4 °F 88% 30.18 in 6.2 mi NNE 6.9 mph - N/A   Mostly Cloudy
11:00 PM 66.2 °F 62.6 °F 88% 30.15 in 6.2 mi NNE 4.6 mph - N/A   Mostly Cloudy